Weather History for Point Petre, ON

Change the Weather History Date:

Thursday, October 11, 2012

  Actual Average Record
Temperature  
Mean Temperature 49 °F -  
Max Temperature 55 °F - - ()
Min Temperature 43 °F - - ()
Degree Days  
Heating Degree Days 16    
Moisture  
Dew Point 39 °F    
Average Humidity 65    
Maximum Humidity 79    
Minimum Humidity 48    
Precipitation  
Precipitation 0.03 in - - ()
Sea Level Pressure  
Sea Level Pressure 30.04 in    
Wind  
Wind Speed 22 mph ()    
Max Wind Speed 33 mph    
Max Gust Speed 40 mph    
T = Trace of Precipitation, MM = Missing Value Source: Averaged Metar Reports

Daily Weather History Graph

Daily Weather History Graph

Search for Another Location

Airport:

Trip Planner

Search our weather history database for the weather conditions in past years. The results will help you decide how hot, cold, wet, or windy it might be!

Date:

Astronomy

Oct. 11, 2012 Rise Set
Actual Time 7:18 AM EDT 6:30 PM EDT
Civil Twilight 6:49 AM EDT 6:59 PM EDT
Nautical Twilight 6:16 AM EDT 7:33 PM EDT
Astronomical Twilight 5:43 AM EDT 8:06 PM EDT
Moon 2:47 AM EDT (10/11) 4:12 PM EDT (10/11)
Length of Visible Light 12h 10m
Length of Day
11h 12m
Waning Crescent, 18% of the Moon is Illuminated
Oct 11
Waning Crescent
Oct 15
New
Oct 21
First Quarter
Oct 29
Full
Nov 6
Last Quarter

Hourly Weather History & Observations

Time (EDT) Temp. Windchill Dew Point Humidity Pressure Visibility Wind Dir Wind Speed Gust Speed Precip Events Conditions
12:00 AM 47.8 °F - 38.7 °F 70% 29.92 in - WNW 31.1 mph 40.3 mph N/A   Unknown
1:00 AM 47.5 °F - 39.6 °F 74% 29.94 in - WNW 28.8 mph 40.3 mph N/A   Unknown
2:00 AM 46.6 °F - 39.2 °F 75% 29.96 in - WNW 25.3 mph 33.4 mph N/A   Unknown
3:00 AM 46.2 °F 37.7 °F 39.0 °F 76% 29.98 in - West 25.3 mph 32.2 mph N/A   Unknown
4:00 AM 46.4 °F 37.4 °F 40.1 °F 79% 30.01 in - West 28.8 mph 36.8 mph N/A   Unknown
5:00 AM 46 °F - 39 °F 70% 30.04 in - West 27.6 mph - -  
5:00 AM 46.2 °F 37.3 °F 39.4 °F 77% 30.04 in - West 27.6 mph 35.7 mph N/A   Unknown
6:00 AM 44.8 °F 35.7 °F 36.9 °F 74% 30.06 in - WNW 25.3 mph 32.2 mph N/A   Unknown
7:00 AM 44.6 °F 36.6 °F 36.7 °F 74% 30.07 in - WNW 19.6 mph 29.9 mph N/A   Unknown
8:00 AM 45 °F - 37 °F 64% 30.09 in - WNW 19.6 mph - -  
8:00 AM 44.8 °F 36.9 °F 36.7 °F 73% 30.09 in - WNW 19.6 mph 25.3 mph N/A   Unknown
9:00 AM 46.0 °F 39.0 °F 38.1 °F 74% 30.12 in - WNW 17.3 mph 24.2 mph N/A   Unknown
10:00 AM 45.9 °F 38.0 °F 35.2 °F 66% 30.14 in - West 20.7 mph - N/A   Unknown
11:00 AM 49 °F - 38 °F 54% 30.14 in - West 19.6 mph - -  
11:00 AM 48.7 °F - 37.6 °F 65% 30.14 in - West 19.6 mph 26.5 mph N/A   Unknown
1:00 PM 48.0 °F - 36.0 °F 63% 30.14 in - West 20.7 mph 29.9 mph N/A   Unknown
2:00 PM 49 °F - 35 °F 48% 30.11 in - West 17.3 mph - -  
2:00 PM 49.3 °F - 35.2 °F 58% 30.11 in - West 17.3 mph 27.6 mph N/A   Unknown
4:00 PM 49.8 °F - 30.6 °F 48% 30.06 in - WSW 13.8 mph 19.6 mph N/A   Unknown
5:00 PM 52 °F - 39 °F 51% 30.02 in - SW 19.6 mph - -  
5:00 PM 52.2 °F - 39.2 °F 61% 30.02 in - SW 19.6 mph - N/A   Unknown
6:00 PM 53.6 °F - 41.7 °F 64% 30.00 in - SW 28.8 mph - N/A   Unknown
7:00 PM 54.3 °F - 42.8 °F 65% 29.99 in - SW 21.9 mph - N/A   Unknown
8:00 PM 55 °F - 43 °F 54% 29.98 in - WSW 26.5 mph - -  
8:00 PM 54.9 °F - 43.2 °F 65% 29.98 in - WSW 26.5 mph 34.5 mph N/A   Unknown
10:00 PM 55.8 °F - 43.9 °F 64% 29.95 in - WSW 33.4 mph 40.3 mph N/A   Unknown
11:00 PM 54 °F - 44 °F 58% 29.97 in - West 31.1 mph - -